GW2569 Weather Reports


time (UTC)temp
C
wind
direction
speed
KPH
gust
KPH
rain 1hr
cm
rain 24hr
cm
rain mn
cm
humidity
%
barometer
mb
20260502164039 34 0 4.8 19.3 0.00 0.00 0.00 65 1011.9
20260502163538 34 340 9.7 19.3 0.00 0.00 0.00 65 1011.9
20260502163050 34 286 9.7 17.7 0.00 0.00 0.00 66 1011.9
20260502162539 34 314 8.0 17.7 0.00 0.00 0.00 67 1011.9
20260502162037 34 317 9.7 19.3 0.00 0.00 0.00 68 1011.9
20260502161553 33 313 8.0 19.3 0.00 0.00 0.00 68 1012.0
20260502161037 33 312 8.0 17.7 0.00 0.00 0.00 70 1012.0
20260502160542 33 320 11.3 17.7 0.00 0.00 0.00 69 1012.0
20260502152039 33 333 3.2 12.9 0.00 0.00 0.00 73 1011.7
20260502151557 32 348 3.2 14.5 0.00 0.00 0.00 73 1011.6
20260502151039 32 333 3.2 14.5 0.00 0.00 0.00 72 1011.6
20260502150539 32 79 3.2 14.5 0.00 0.00 0.00 71 1011.6
20260502130539 30 34 1.6 6.4 0.00 0.00 0.00 69 1010.0
20260502123539 29 323 1.6 9.7 0.00 0.00 0.00 71 1009.5
20260502123051 29 355 3.2 9.7 0.00 0.00 0.00 71 1009.4
20260502122539 29 360 3.2 6.4 0.00 0.00 0.00 70 1009.3
20260502122037 29 336 1.6 4.8 0.00 0.00 0.00 69 1009.2
20260502121552 29 0 0.0 1.6 0.00 0.00 0.00 69 1009.2
20260502121037 29 0 0.0 1.6 0.00 0.00 0.00 69 1009.1
20260502120539 29 0 0.0 4.8 0.00 0.00 0.00 69 1009.0
20260502120109 29 0 0.0 4.8 0.00 0.00 0.00 70 1008.9
20260502115539 30 321 1.6 4.8 0.00 0.00 0.00 69 1008.8
20260502115039 30 0 1.6 4.8 0.00 0.00 0.00 70 1008.7
20260502114629 30 340 1.6 9.7 0.00 0.00 0.00 70 1008.7
20260502114039 30 0 1.6 9.7 0.00 0.00 0.00 69 1008.6
20260502113541 30 338 3.2 9.7 0.00 0.00 0.00 69 1008.5
20260502113056 30 309 3.2 6.4 0.00 0.00 0.00 69 1008.4
20260502112541 30 312 1.6 6.4 0.00 0.00 0.00 69 1008.5
20260502112040 30 317 3.2 6.4 0.00 0.00 0.00 69 1008.3
20260502111550 30 0 0.0 3.2 0.00 0.00 0.00 69 1008.3
20260502111044 30 0 0.0 3.2 0.00 0.00 0.00 68 1008.4
20260502110543 30 265 0.0 0.0 0.00 0.00 0.00 68 1008.3
20260502110050 30 0 0.0 0.0 0.00 0.00 0.00 68 1008.2
20260502105545 30 0 0.0 1.6 0.00 0.00 0.00 68 1008.1
20260502105040 30 0 0.0 3.2 0.00 0.00 0.00 68 1008.1
20260502104554 30 0 0.0 4.8 0.00 0.00 0.00 68 1008.0
20260502104040 30 0 0.0 8.0 0.00 0.00 0.00 68 1007.9
20260502103541 30 252 3.2 8.0 0.00 0.00 0.00 68 1007.8
20260502103050 30 304 1.6 6.4 0.00 0.00 0.00 68 1007.7
20260502102541 30 0 1.6 4.8 0.00 0.00 0.00 68 1007.7
20260502102041 30 225 0.0 3.2 0.00 0.00 0.00 68 1007.6
20260502101613 30 0 0.0 6.4 0.00 0.00 0.00 68 1007.5
20260502101042 30 0 0.0 6.4 0.00 0.00 0.00 68 1007.3
20260502100541 30 0 0.0 6.4 0.00 0.00 0.00 68 1007.4
20260502100107 30 254 0.0 12.9 0.00 0.00 0.00 68 1007.2
20260502091041 30 0 0.0 6.4 0.00 0.00 0.00 70 1007.5
20260502090542 30 130 3.2 6.4 0.00 0.00 0.00 71 1007.4
20260502071040 31 223 4.8 20.9 0.00 0.00 0.00 66 1007.2
20260502070542 31 267 4.8 17.7 0.00 0.00 0.00 66 1007.2
20260502070059 31 275 3.2 17.7 0.00 0.00 0.00 66 1007.2
20260502065543 31 254 8.0 19.3 0.00 0.00 0.00 66 1007.3
20260502065042 32 244 9.7 19.3 0.00 0.00 0.00 66 1007.2
20260502064615 32 257 8.0 22.5 0.00 0.00 0.00 65 1007.2
20260502064041 32 246 11.3 22.5 0.00 0.00 0.00 65 1007.3
20260502063542 32 233 8.0 19.3 0.00 0.00 0.00 66 1007.3
20260502063054 32 226 9.7 19.3 0.00 0.00 0.00 66 1007.4
20260502062540 32 239 8.0 19.3 0.00 0.00 0.00 66 1007.3
20260502062040 32 254 9.7 22.5 0.00 0.00 0.00 65 1007.4
20260502061550 32 240 8.0 22.5 0.00 0.00 0.00 65 1007.4
20260502061040 32 298 8.0 19.3 0.00 0.00 0.00 66 1007.4
20260502060545 32 245 9.7 22.5 0.00 0.00 0.00 65 1007.5
20260502060050 32 259 12.9 22.5 0.00 0.00 0.00 65 1007.5
20260502055542 32 246 6.4 20.9 0.00 0.00 0.00 66 1007.5
20260502055042 32 232 9.7 19.3 0.00 0.00 0.00 66 1007.6
20260502054553 32 273 8.0 17.7 0.00 0.00 0.00 66 1007.5
20260502054040 32 259 9.7 20.9 0.00 0.00 0.00 66 1007.6
20260502053540 32 245 6.4 20.9 0.00 0.00 0.00 66 1007.6
20260502053057 32 250 4.8 19.3 0.00 0.00 0.00 67 1007.7
20260502052540 33 291 6.4 19.3 0.00 0.00 0.00 67 1007.6
20260502052040 33 258 9.7 17.7 0.00 0.00 0.00 67 1007.7
20260502051625 33 276 6.4 16.1 0.00 0.00 0.00 68 1007.7
20260502051044 33 221 8.0 16.1 0.00 0.00 0.00 68 1007.7
20260502050540 33 271 8.0 16.1 0.00 0.00 0.00 69 1007.7
20260502050051 33 291 8.0 16.1 0.00 0.00 0.00 70 1007.7
20260502045540 33 266 9.7 17.7 0.00 0.00 0.00 70 1007.7
20260502045040 33 291 8.0 17.7 0.00 0.00 0.00 71 1007.7
20260502044552 33 275 6.4 12.9 0.00 0.00 0.00 73 1007.8
20260502044040 33 275 4.8 12.9 0.00 0.00 0.00 74 1007.8
20260502043540 33 270 4.8 12.9 0.00 0.00 0.00 76 1007.8
20260502043113 33 261 3.2 12.9 0.00 0.00 0.00 76 1007.7
20260502042542 33 268 4.8 12.9 0.00 0.00 0.00 76 1007.7
20260502042042 33 264 3.2 6.4 0.00 0.00 0.00 76 1007.7
20260502041559 33 250 3.2 6.4 0.00 0.00 0.00 76 1007.7
20260502041041 33 298 3.2 9.7 0.00 0.00 0.00 76 1007.6
20260502040542 33 253 3.2 11.3 0.00 0.00 0.00 77 1007.6
20260502040056 33 300 3.2 12.9 0.00 0.00 0.00 77 1007.5
20260502035540 33 230 3.2 12.9 0.00 0.00 0.00 77 1007.5
20260502035040 33 257 6.4 12.9 0.00 0.00 0.00 77 1007.5
20260502034550 33 271 4.8 9.7 0.00 0.00 0.00 77 1007.5
20260502034041 33 261 3.2 8.0 0.00 0.00 0.00 77 1007.5
20260502033539 33 257 1.6 8.0 0.00 0.00 0.00 77 1007.4
20260502033052 33 256 1.6 8.0 0.00 0.00 0.00 77 1007.3
20260502032539 33 0 0.0 4.8 0.00 0.00 0.00 77 1007.2
20260502032043 33 0 0.0 4.8 0.00 0.00 0.00 77 1007.1
20260502031551 33 0 1.6 4.8 0.00 0.00 0.00 77 1007.0
20260502031041 33 0 1.6 4.8 0.00 0.00 0.00 76 1006.9
20260502030540 33 0 1.6 4.8 0.00 0.00 0.00 77 1006.9
20260502030057 33 0 1.6 4.8 0.00 0.00 0.00 78 1006.9
20260502025540 33 0 0.0 4.8 0.00 0.00 0.00 78 1006.7
20260502025040 33 132 1.6 4.8 0.00 0.00 0.00 77 1006.5
20260502024549 33 129 0.0 4.8 0.00 0.00 0.00 78 1006.5
20260502024044 33 0 1.6 4.8 0.00 0.00 0.00 77 1006.5
20260502023545 33 0 0.0 4.8 0.00 0.00 0.00 77 1006.4
20260502023056 33 183 0.0 6.4 0.00 0.00 0.00 77 1006.3
20260502022539 33 132 1.6 6.4 0.00 0.00 0.00 77 1006.3
20260502022041 33 141 0.0 6.4 0.00 0.00 0.00 77 1006.1
20260502021548 33 134 1.6 6.4 0.00 0.00 0.00 78 1006.1
20260502021041 33 109 1.6 6.4 0.00 0.00 0.00 78 1006.0
20260502020543 33 171 1.6 6.4 0.00 0.00 0.00 78 1005.9
20260502020051 33 149 1.6 9.7 0.00 0.00 0.00 78 1005.9
20260502015541 33 120 3.2 9.7 0.00 0.00 0.00 78 1005.8
20260502015041 33 106 1.6 8.0 0.00 0.00 0.00 78 1005.7
20260502014548 33 135 1.6 6.4 0.00 0.00 0.00 78 1005.6
20260502014040 33 131 0.0 4.8 0.00 0.00 0.00 78 1005.5
20260502013541 33 105 1.6 6.4 0.00 0.00 0.00 78 1005.4
20260502013051 33 134 1.6 9.7 0.00 0.00 0.00 78 1005.3
20260502012541 33 82 1.6 9.7 0.00 0.00 0.00 79 1005.3
20260502012041 33 152 3.2 9.7 0.00 0.00 0.00 78 1005.2
20260502011556 33 56 3.2 9.7 0.00 0.00 0.00 78 1005.1
20260502011041 33 70 3.2 9.7 0.00 0.00 0.00 78 1005.1
20260502010539 33 79 3.2 12.9 0.00 0.00 0.00 78 1005.0
20260502010052 33 90 4.8 12.9 0.00 0.00 0.00 77 1004.9
20260502005541 33 101 6.4 11.3 0.00 0.00 0.00 77 1004.8
20260502005040 33 107 4.8 11.3 0.00 0.00 0.00 77 1004.7
20260502004546 33 88 4.8 11.3 0.00 0.00 0.00 76 1004.7
20260502004040 33 57 3.2 11.3 0.00 0.00 0.00 76 1004.6
20260502003542 34 99 4.8 12.9 0.00 0.00 0.00 76 1004.5
20260502003052 34 76 3.2 14.5 0.00 0.00 0.00 76 1004.5
20260502002541 34 88 4.8 14.5 0.00 0.00 0.00 75 1004.4
20260502002039 34 63 4.8 14.5 0.00 0.00 0.00 75 1004.3
20260502001550 34 119 3.2 12.9 0.00 0.00 0.00 75 1004.3
20260502001038 34 74 6.4 16.1 0.00 0.00 0.00 74 1004.3
20260502000537 35 51 3.2 16.1 0.00 0.00 0.00 74 1004.1
20260502000051 35 78 8.0 17.7 0.00 0.00 0.00 74 1004.2
20260501235540 35 71 8.0 17.7 0.00 0.00 0.00 73 1004.2
20260501235039 35 94 8.0 17.7 0.00 0.00 0.00 72 1004.1
20260501234548 35 98 6.4 16.1 0.00 0.00 0.00 72 1004.1
20260501234038 35 107 8.0 16.1 0.00 0.00 0.00 72 1004.0
20260501233540 35 83 9.7 17.7 0.00 0.00 0.00 72 1004.0
20260501233101 35 135 8.0 17.7 0.00 0.00 0.00 71 1004.0
20260501232540 35 53 9.7 17.7 0.00 0.00 0.00 71 1004.1
20260501232043 35 117 8.0 16.1 0.00 0.00 0.00 71 1004.1
20260501231551 35 120 9.7 17.7 0.00 0.00 0.00 71 1004.1
20260501231040 35 148 8.0 19.3 0.00 0.00 0.00 71 1003.9
20260501230540 36 55 8.0 19.3 0.00 0.00 0.00 71 1003.9
20260501230048 36 102 6.4 19.3 0.00 0.00 0.00 71 1003.9
20260501225540 36 100 11.3 19.3 0.00 0.00 0.00 71 1003.8
20260501225039 36 80 6.4 16.1 0.00 0.00 0.00 71 1003.8
20260501224554 36 49 6.4 19.3 0.00 0.00 0.00 70 1003.8
20260501224040 36 30 8.0 19.3 0.00 0.00 0.00 70 1003.8
20260501223540 36 50 6.4 19.3 0.00 0.00 0.00 69 1003.8
20260501223048 36 119 9.7 19.3 0.00 0.00 0.00 69 1003.9
20260501222541 36 96 8.0 16.1 0.00 0.00 0.00 69 1003.9
20260501222041 36 71 6.4 20.9 0.00 0.00 0.00 69 1004.0
20260501221546 36 148 9.7 20.9 0.00 0.00 0.00 68 1003.9
20260501221043 36 75 8.0 17.7 0.00 0.00 0.00 68 1003.9
20260501220540 36 90 6.4 14.5 0.00 0.00 0.00 68 1004.0
20260501220107 36 97 6.4 17.7 0.00 0.00 0.00 68 1004.0
20260501215540 36 25 9.7 17.7 0.00 0.00 0.00 68 1004.0
20260501215040 36 96 8.0 16.1 0.00 0.00 0.00 68 1004.1
20260501214546 36 94 4.8 14.5 0.00 0.00 0.00 68 1004.0
20260501214039 36 70 8.0 14.5 0.00 0.00 0.00 68 1004.1
20260501213539 36 111 6.4 16.1 0.00 0.00 0.00 68 1004.2
20260501213048 36 140 9.7 16.1 0.00 0.00 0.00 68 1004.2
20260501212544 37 96 8.0 16.1 0.00 0.00 0.00 68 1004.3
20260501212039 37 96 6.4 17.7 0.00 0.00 0.00 68 1004.3
20260501211551 37 49 4.8 17.7 0.00 0.00 0.00 68 1004.3
20260501211040 36 117 6.4 17.7 0.00 0.00 0.00 69 1004.4
20260501210537 36 109 4.8 16.1 0.00 0.00 0.00 69 1004.5
20260501210052 37 99 8.0 16.1 0.00 0.00 0.00 68 1004.6
20260501205540 36 117 8.0 14.5 0.00 0.00 0.00 68 1004.5
20260501205041 36 76 4.8 16.1 0.00 0.00 0.00 69 1004.6
20260501204600 36 189 8.0 17.7 0.00 0.00 0.00 68 1004.6
20260501204040 36 130 8.0 17.7 0.00 0.00 0.00 68 1004.7
20260501203540 36 174 1.6 16.1 0.00 0.00 0.00 68 1004.9
20260501203051 37 71 3.2 19.3 0.00 0.00 0.00 68 1004.9
20260501202539 36 26 8.0 19.3 0.00 0.00 0.00 69 1005.0
20260501202039 36 86 6.4 16.1 0.00 0.00 0.00 69 1005.1
20260501201550 36 73 6.4 16.1 0.00 0.00 0.00 68 1005.3
20260501201037 36 74 4.8 14.5 0.00 0.00 0.00 68 1005.4
20260501200540 36 87 9.7 16.1 0.00 0.00 0.00 67 1005.5
20260501200050 36 103 8.0 16.1 0.00 0.00 0.00 68 1005.6
20260501195539 36 140 3.2 14.5 0.00 0.00 0.00 68 1005.6
20260501195038 36 161 4.8 14.5 0.00 0.00 0.00 67 1005.8
20260501194550 36 144 1.6 12.9 0.00 0.00 0.00 68 1005.9
20260501194045 36 115 1.6 11.3 0.00 0.00 0.00 68 1006.0
20260501193540 36 94 6.4 16.1 0.00 0.00 0.00 68 1006.1
20260501193049 36 55 4.8 16.1 0.00 0.00 0.00 68 1006.2
20260501192540 36 121 6.4 16.1 0.00 0.00 0.00 68 1006.2
20260501192040 36 113 3.2 14.5 0.00 0.00 0.00 69 1006.4
20260501191546 36 90 6.4 14.5 0.00 0.00 0.00 68 1006.5
20260501191040 36 81 4.8 14.5 0.00 0.00 0.00 68 1006.6
20260501190538 36 43 4.8 14.5 0.00 0.00 0.00 68 1006.7
20260501190049 36 113 6.4 14.5 0.00 0.00 0.00 67 1006.8
20260501185539 36 132 4.8 14.5 0.00 0.00 0.00 69 1006.8
20260501185041 36 53 4.8 14.5 0.00 0.00 0.00 68 1006.9
20260501184552 36 60 4.8 12.9 0.00 0.00 0.00 68 1006.9
20260501184038 36 121 4.8 11.3 0.00 0.00 0.00 68 1007.1
20260501183541 35 98 3.2 11.3 0.00 0.00 0.00 69 1007.1
20260501183107 35 294 3.2 11.3 0.00 0.00 0.00 70 1007.3
20260501182540 35 0 4.8 11.3 0.00 0.00 0.00 70 1007.5
20260501182039 35 130 1.6 11.3 0.00 0.00 0.00 70 1007.5
20260501181556 35 0 1.6 11.3 0.00 0.00 0.00 70 1007.5
20260501181040 35 107 1.6 11.3 0.00 0.00 0.00 72 1007.5
20260501180541 35 0 3.2 11.3 0.00 0.00 0.00 71 1007.6
20260501180055 35 196 1.6 12.9 0.00 0.00 0.00 69 1007.7
20260501175541 34 0 3.2 14.5 0.00 0.00 0.00 70 1007.7
20260501175037 34 117 6.4 14.5 0.00 0.00 0.00 71 1007.7
20260501174556 34 166 3.2 12.9 0.00 0.00 0.00 71 1007.9
20260501174040 34 103 1.6 12.9 0.00 0.00 0.00 73 1008.0
20260501173542 33 155 3.2 12.9 0.00 0.00 0.00 73 1008.0
20260501173054 33 162 3.2 9.7 0.00 0.00 0.00 73 1008.0
20260501172541 34 165 1.6 9.7 0.00 0.00 0.00 73 1008.0
20260501172040 33 65 3.2 9.7 0.00 0.00 0.00 73 1008.1